Regional Weather Roundup
Issued by NWS

Home | Current Version | Previous Version | Text Only | Print | Product List | Glossary Off
Versions: 1 2 3 4 5 6 7 8 9 10 11 12 13 14 15 16 17 18 19 20 21 22 23 24 25 26 27 28 29 30 31 32 33 34 35 36 37 38 39 40 41 42 43 44 45 46 47 48 49 50

000
ASUS43 KBIS 270610
RWRND

NORTH DAKOTA REGIONAL WEATHER ROUNDUP
NATIONAL WEATHER SERVICE BISMARCK ND
1200 AM CST SAT DEC 27 2014

NOTE: "FAIR" INDICATES FEW OR NO CLOUDS BELOW 12,000 FEET WITH NO
SIGNIFICANT WEATHER AND/OR OBSTRUCTIONS TO VISIBILITY.


NDZ001>003-009>011-017-270700-
NORTHWEST NORTH DAKOTA

CITY           SKY/WX    TMP DP  RH WIND       PRES   REMARKS
WILLISTON      CLOUDY    20  16  84 CALM      30.09S
6HR MIN TEMP:  19; 6HR MAX TEMP:  21;

MINOT          CLOUDY    12   7  80 SE5       30.10F WCI   4
$$

NDZ018>021-031>035-040>046-270700-
SOUTHWEST NORTH DAKOTA

CITY           SKY/WX    TMP DP  RH WIND       PRES   REMARKS
BISMARCK       CLOUDY    -1  -5  82 CALM      30.18F
6HR MIN TEMP:  -2; 6HR MAX TEMP:   8;

DICKINSON      CLOUDY    15  10  80 S7        30.08S WCI   5
GARRISON         N/A     16  13  88 S8        30.11F WCI   5
6HR MIN TEMP:   5; 6HR MAX TEMP:  16;

HETTINGER ARPT CLEAR      4  -1  80 CALM      30.12S
$$

NDZ004>008-012>016-024-026-027-054-270700-
NORTHEAST NORTH DAKOTA

CITY           SKY/WX    TMP DP  RH WIND       PRES   REMARKS
GRAND FORKS    CLOUDY     5   2  87 W7        30.23S WCI  -7
GRND FRKS AFB  CLOUDY     1   0  92 W3        30.24R
DEVILS LAKE    MOCLDY     0  -8  71 CALM      30.14F
$$

NDZ022-023-025-028>030-036>039-047>053-270700-
SOUTHEAST NORTH DAKOTA

CITY           SKY/WX    TMP DP  RH WIND       PRES   REMARKS
FARGO          CLEAR      6   2  83 N8        30.21F WCI  -7
6HR MIN TEMP:   6; 6HR MAX TEMP:  21;

JAMESTOWN      PTCLDY     2  -2  83 W3        30.17F
$$




USA.gov is the U.S. government's official web portal to all federal, state and local government web resources and services.